This demonstration page uses our WeatherBlox Daily Observations layout. Learn more.

39.01783, -85.05884

Hourly Observations for October 11, 2018

Temp ( °F °C ) Dew Point ( °F °C ) Humidity (%) Winds ( mph kmh ) Pressure ( in mb ) Visibility ( mi km ) Precip ( " mm )
12:17 am 00:17 Mostly Cloudy 70 21.1 70 21.1 100 100 SW 5 7 29.74 1007 9 14.484096 0 0
12:52 am 00:52 Mostly Cloudy 70 21.1 69 20.6 97 97 W 6 9 29.71 1006 10 16.09344 0 0
1:52 am 01:52 Mostly Cloudy 70 21.1 68 20 93 93 W 8 13 29.74 1007 10 16.09344 0 0
2:52 am 02:52 Cloudy 69 20.6 67 19.4 93 93 WNW 9 15 29.74 1007 10 16.09344 0 0
3:18 am 03:18 Cloudy 68 20 65 18.3 90 90 NW 16 26 29.74 1007 10 16.09344 0 0
3:52 am 03:52 Cloudy 65 18.3 63 17.2 93 93 NW 14 22 29.74 1007 10 16.09344 0 0
4:52 am 04:52 Cloudy 64 17.8 61 16.1 90 90 NW 9 15 29.74 1007 10 16.09344 0 0
5:52 am 05:52 Cloudy 59 15 55 12.8 87 87 WNW 15 24 29.77 1008 10 16.09344 0 0
6:10 am 06:10 Cloudy 58 14.4 53 11.7 84 84 WNW 14 22 29.83 1010 10 16.09344 0 0
6:52 am 06:52 Mostly Cloudy 56 13.3 51 10.6 84 84 NW 14 22 29.8 1009 10 16.09344 0 0
7:30 am 07:30 Mostly Cloudy 55 12.8 50 10 83 83 NW 13 20 29.83 1010 10 16.09344 0 0
7:52 am 07:52 Cloudy 56 13.3 51 10.6 84 84 NW 15 24 29.8 1009 10 16.09344 0 0
8:52 am 08:52 Cloudy 56 13.3 50 10 81 81 NW 15 24 29.83 1010 10 16.09344 0 0
9:52 am 09:52 Cloudy 54 12.2 47 8.3 77 77 NW 13 20 29.85 1011 10 16.09344 0 0
10:52 am 10:52 Cloudy 54 12.2 48 8.9 80 80 WNW 15 24 29.85 1011 10 16.09344 0 0
11:52 am 11:52 Mostly Cloudy 56 13.3 47 8.3 72 72 WNW 15 24 29.85 1011 10 16.09344 0 0
12:28 pm 12:28 Mostly Cloudy 58 14.4 47 8.3 67 67 NW 15 24 29.88 1012 10 16.09344 0 0
12:52 pm 12:52 Mostly Cloudy 59 15 48 8.9 67 67 NW 13 20 29.85 1011 10 16.09344 0 0
1:52 pm 13:52 Mostly Sunny 61 16.1 47 8.3 60 60 WNW 17 28 29.85 1011 10 16.09344 0 0
2:52 pm 14:52 Mostly Sunny 62 16.7 46 7.8 56 56 WNW 14 22 29.85 1011 10 16.09344 0 0
3:52 pm 15:52 Mostly Sunny 61 16.1 44 6.7 54 54 W 17 28 29.85 1011 10 16.09344 0 0
4:52 pm 16:52 Sunny 61 16.1 43 6.1 52 52 W 21 33 29.85 1011 10 16.09344 0 0
5:52 pm 17:52 Sunny 60 15.6 42 5.6 52 52 WNW 16 26 29.85 1011 10 16.09344 0 0
6:52 pm 18:52 Sunny 57 13.9 41 5 55 55 NW 15 24 29.88 1012 10 16.09344 0 0
7:52 pm 19:52 Clear 54 12.2 39 3.9 57 57 NW 16 26 29.91 1013 10 16.09344 0 0
8:52 pm 20:52 Clear 52 11.1 40 4.4 64 64 NW 12 19 29.94 1014 10 16.09344 0 0
9:52 pm 21:52 Clear 51 10.6 39 3.9 64 64 WNW 9 15 29.97 1015 10 16.09344 0 0
10:52 pm 22:52 Clear 50 10 39 3.9 66 66 NW 9 15 29.97 1015 10 16.09344 0 0
11:52 pm 23:52 Clear 48 8.9 39 3.9 71 71 NW 8 13 29.97 1015 10 16.09344 0 0

Powered by AerisWeather